Total_Precipitation_Accumulation
4.38 4.67 4.62 4.66 4.46 4.75 5.14 5.33 4.79 4.70 4.42 4.23 3.97 3.66 3.62 3.35 3.10 2.99 3.09 3.11 2.92 2.90 3.20 3.42 3.33 3.28 3.34 3.11 2.88 2.55 2.33 2.29 2.12 1.86 1.69 1.68 1.64 1.51 1.42 1.29 1.27 1.17 1.11
3.78 4.01 4.04 4.15 4.02 4.21 4.46 4.51 4.44 4.76 4.65 4.44 4.01 3.63 3.48 3.47 3.30 3.07 3.25 3.28 3.18 2.89 3.00 3.48 3.78 3.81 3.90 3.74 3.45 3.09 2.75 2.51 2.24 1.94 1.79 1.77 1.69 1.66 1.71 1.68 1.72 1.41 1.24
3.47 3.53 3.63 3.72 3.81 3.77 3.94 4.02 4.12 4.39 4.47 4.37 4.10 3.72 3.52 3.54 3.38 3.28 3.16 3.24 3.16 3.12 3.07 3.26 3.60 3.72 4.06 4.30 4.17 3.68 3.29 2.89 2.44 2.02 1.75 1.70 1.69 1.58 1.58 1.65 1.72 1.56 1.39
2.89 3.02 3.00 3.02 3.22 3.31 3.49 3.80 3.90 4.19 4.47 4.54 4.47 4.01 3.82 3.75 3.47 3.43 3.25 3.24 3.52 3.19 3.40 3.59 3.58 3.54 3.99 4.50 4.79 4.70 4.25 3.48 2.78 2.30 1.99 1.82 1.76 1.69 1.62 1.62 1.63 1.59 1.42
2.71 2.81 2.93 3.01 2.75 2.93 3.17 3.08 3.60 3.92 4.30 4.40 3.94 3.97 3.73 3.60 3.60 3.31 3.35 3.23 3.40 3.45 3.63 3.66 3.71 3.58 3.99 4.84 5.55 5.86 5.36 4.42 3.61 3.03 2.74 2.52 2.26 1.91 1.74 1.71 1.66 1.62 1.51
2.85 2.93 2.81 2.61 2.41 2.68 3.08 3.28 3.80 3.90 3.88 3.91 3.35 3.60 3.42 3.08 3.24 3.38 3.20 3.28 3.28 3.04 3.35 3.72 3.98 3.52 3.91 4.60 5.18 5.73 6.01 5.64 4.84 4.12 3.68 3.36 3.09 2.57 2.05 1.84 1.77 1.71 1.61
3.05 3.14 2.81 2.93 2.55 2.62 2.79 2.96 3.35 3.58 3.53 3.51 3.84 3.94 3.51 3.05 3.07 2.97 2.85 3.10 3.11 3.11 3.53 4.01 4.16 3.99 3.61 3.47 3.64 4.40 5.43 6.14 6.06 5.24 4.61 4.08 3.69 3.10 2.49 2.17 1.93 1.77 1.74
2.99 2.78 2.89 2.65 2.60 2.85 2.89 3.03 3.32 3.46 3.40 3.47 3.73 4.14 3.90 3.83 3.27 2.49 2.68 2.80 2.90 3.18 3.19 3.32 3.71 4.06 3.71 3.73 2.91 2.99 3.99 4.96 5.89 5.95 5.21 4.38 3.98 3.62 3.13 2.71 2.40 2.11 1.96
2.68 2.75 2.68 2.74 2.93 2.63 2.91 3.10 3.13 3.42 3.53 3.39 3.39 3.88 3.89 3.80 3.29 2.63 2.46 2.51 2.75 3.12 3.13 3.22 2.99 3.27 3.55 3.91 3.62 2.88 2.97 3.31 4.42 5.62 5.71 4.92 4.12 3.52 3.30 3.22 3.04 2.66 2.39
2.52 2.52 2.65 2.98 3.14 2.85 3.10 2.66 2.86 3.24 3.48 3.40 3.44 3.20 3.05 3.15 3.36 3.21 2.75 2.50 2.61 2.75 2.86 2.83 2.94 3.23 3.42 3.75 3.73 2.84 2.22 2.32 3.11 4.42 5.34 5.24 4.59 3.79 3.41 3.51 3.90 3.85 3.31
2.90 2.57 2.58 2.88 3.08 3.08 3.18 3.03 3.27 3.06 3.01 3.04 3.16 3.17 3.12 2.99 2.75 2.93 2.96 2.78 2.64 2.34 2.30 2.34 2.52 2.73 2.82 3.22 3.54 2.74 2.24 2.20 2.39 3.00 3.67 4.17 4.28 4.07 3.80 3.93 4.61 5.05 4.91
2.89 2.64 2.64 2.98 3.02 3.05 3.22 3.11 3.09 2.97 3.00 3.03 2.92 2.83 3.12 3.12 2.91 2.98 2.73 2.68 2.58 2.09 1.94 2.01 2.10 2.24 2.43 2.72 2.66 2.49 2.51 2.52 2.34 2.30 2.41 2.67 3.12 3.48 3.83 4.10 4.55 5.07 5.39
2.48 2.59 2.73 3.06 3.02 3.02 2.99 3.06 3.02 3.05 3.13 3.16 3.02 2.82 2.82 2.87 2.91 2.94 2.89 2.51 2.36 2.08 2.05 1.94 1.91 2.16 2.34 2.85 3.03 2.81 2.67 2.80 2.42 2.13 2.03 2.01 2.12 2.41 2.77 3.22 3.82 4.44 5.00
2.48 2.56 2.69 2.65 2.65 2.75 2.65 2.98 2.82 2.80 2.93 3.00 2.84 3.19 3.06 2.68 2.83 2.92 3.06 3.27 2.99 2.63 2.53 2.35 2.23 2.40 2.68 2.96 3.30 3.12 2.64 2.53 2.20 2.03 1.93 1.87 1.87 1.88 1.98 2.16 2.49 2.94 3.37
2.42 2.51 2.53 2.59 2.63 2.64 2.68 2.92 2.81 2.85 3.06 2.90 2.89 3.32 3.09 2.70 2.69 2.78 3.01 3.37 3.65 3.20 2.81 2.71 2.71 2.74 2.85 2.92 3.10 2.80 2.54 2.47 2.19 1.97 1.89 1.88 1.87 1.78 1.72 1.72 1.80 1.97 2.16
2.23 2.39 2.46 2.56 2.62 2.58 2.68 2.87 2.70 2.91 3.00 2.90 2.91 3.02 2.95 2.70 2.74 2.84 3.03 3.29 3.60 3.53 3.01 2.68 2.88 2.92 2.81 2.59 2.89 2.76 2.49 2.41 2.12 1.91 1.73 1.70 1.74 1.79 1.81 1.79 1.75 1.78 1.82
2.28 2.40 2.49 2.57 2.58 2.61 2.76 2.86 2.70 2.87 2.84 2.93 2.85 2.82 2.79 3.00 3.05 2.89 3.07 3.22 3.47 3.73 3.43 2.90 2.98 3.00 2.93 2.69 2.64 2.55 2.41 2.37 2.16 2.11 1.88 1.77 1.68 1.66 1.66 1.69 1.77 1.82 1.79
2.38 2.50 2.61 2.69 2.57 2.67 2.82 2.75 2.72 2.79 2.83 2.79 2.89 3.10 3.02 3.21 3.23 3.17 3.37 3.38 3.47 3.75 3.65 3.28 3.12 3.17 3.04 2.88 2.79 2.54 2.17 2.06 2.05 2.23 2.06 1.90 1.78 1.72 1.65 1.61 1.59 1.56 1.55
2.50 2.49 2.49 2.55 2.71 2.91 2.91 2.73 2.72 2.70 2.60 2.50 2.67 2.97 3.27 3.74 3.59 3.42 3.31 3.23 3.26 3.34 3.59 3.31 3.03 3.23 3.06 2.93 2.88 2.51 2.21 2.16 1.82 1.90 1.94 1.80 1.66 1.53 1.46 1.44 1.43 1.39 1.35
2.49 2.57 2.65 2.66 2.72 2.75 2.74 2.76 2.83 2.82 2.74 2.57 2.57 2.70 2.88 3.19 3.35 3.48 3.26 3.16 3.25 3.34 3.47 3.36 3.25 3.45 3.49 3.32 3.10 2.71 2.50 2.35 2.07 1.75 1.79 1.69 1.59 1.51 1.43 1.37 1.34 1.32 1.32
2.60 2.81 2.88 2.85 2.81 2.74 2.55 2.81 3.00 2.87 2.92 2.79 2.69 2.61 2.45 2.57 2.76 2.96 2.81 3.11 3.32 3.27 3.32 3.37 3.46 3.83 3.80 3.59 3.05 2.78 2.66 2.54 2.25 1.90 1.86 1.63 1.55 1.42 1.39 1.43 1.38 1.33 1.30
3.14 3.18 3.03 2.96 2.88 2.61 2.81 2.92 2.95 2.95 3.04 2.97 2.85 2.77 2.56 2.38 2.37 2.52 2.59 2.80 3.05 3.07 3.12 3.29 3.36 3.53 3.58 3.52 3.30 3.02 2.77 2.61 2.30 2.01 2.03 1.87 1.69 1.59 1.46 1.38 1.48 1.48 1.44
3.19 3.19 3.26 3.22 3.07 3.16 3.22 2.90 2.86 2.84 2.87 2.85 3.05 3.14 2.67 2.25 2.49 2.44 2.52 2.52 2.40 2.52 2.73 2.94 3.08 3.10 3.43 3.57 3.63 3.19 3.00 2.78 2.39 2.21 2.29 2.09 1.96 1.76 1.54 1.47 1.59 1.44 1.42
3.11 3.07 3.02 2.97 2.92 2.90 3.02 2.78 2.73 2.60 2.59 2.59 2.65 2.70 2.68 2.49 2.43 2.49 2.45 2.28 2.05 2.04 2.20 2.25 2.32 2.59 2.96 3.47 3.81 3.55 3.43 3.22 2.83 2.46 2.30 2.14 1.97 1.83 1.62 1.54 1.61 1.48 1.38
3.04 2.99 2.95 2.97 2.84 2.80 2.88 2.69 2.69 2.46 2.39 2.30 2.28 2.28 2.30 2.14 2.23 2.30 2.24 2.12 2.00 1.89 1.93 2.01 1.96 2.08 2.40 2.80 3.32 3.56 3.31 2.99 2.64 2.30 2.19 2.07 1.85 1.94 1.88 1.73 1.63 1.68 1.51
3.19 3.17 3.12 3.11 3.00 2.90 3.03 2.78 2.68 2.43 2.36 2.33 2.40 2.37 2.32 2.14 2.14 2.08 1.97 1.97 1.79 1.68 1.82 1.80 1.72 1.73 1.85 2.19 2.72 2.90 3.02 2.88 2.54 2.26 1.96 2.02 1.92 2.06 2.08 1.78 1.61 1.60 1.55